#timestamp,LO_Frequency,Hit,StdDev 
1665306015.1,286046995.6,N
1665306035.9,286047003.8,N
1665306055.7,286047007.1,N
1665306075.5,286047012.2,N
1665306095.4,286047006.1,N
1665306115.2,286047009.9,N
1665306135.0,286047015.9,N
1665306135.9,286047015.9,N
1665306155.8,286047020.4,N
1665306175.6,286047020.0,N
1665306195.5,286047019.4,N
1665306215.3,286047022.7,N
1665306235.1,286047026.4,N
1665306255.9,286047026.6,N
1665306275.7,286047030.6,N
1665306295.6,286047031.9,N
1665306315.4,286047037.4,N
1665306335.2,286047036.0,N
1665306355.1,286047031.7,N
1665306356.0,286047031.7,N
1665306375.8,286047027.5,N
1665306395.7,286047022.8,N
1665306415.5,286047027.2,N
1665306435.3,286047033.7,N
1665306455.2,286047036.8,N
1665306475.9,286047036.0,N
1665306495.7,286047031.7,N
1665306515.6,286047036.0,N
1665306535.4,286047036.3,N
1665306555.2,286047037.9,N
1665306575.1,286047027.1,N
1665306576.0,286047027.1,N
1665306595.8,286047024.7,N
1665306615.7,286047020.7,N
1665306635.5,286047011.7,N
1665306655.3,286047014.0,N
1665306675.2,286047014.1,N
1665306695.0,286047003.4,N
1665306695.9,286047003.4,N
1665306715.8,286046995.4,N
1665306735.6,286046994.8,N
1665306755.4,286046988.6,N
1665306775.3,286046989.4,N
1665306795.1,286046995.4,N
1665306815.8,286046999.6,N
1665306835.7,286046992.9,N
1665306855.5,286046992.9,N
1665306875.4,286046988.4,N
1665306895.2,286046981.5,N
1665306915.0,286046977.5,N
1665306915.9,286046977.5,N
1665306935.8,286046979.8,N
1665306955.6,286046978.8,N
1665306975.4,286046974.9,N
1665306995.3,286046980.5,N
1665307015.1,286046993.0,N
1665307035.9,286047009.2,N
1665307055.7,286047023.6,N
1665307075.5,286047030.1,N
1665307095.4,286047033.3,N
1665307115.2,286047037.8,N
1665307135.0,286047031.7,N
1665307135.9,286047031.7,N
1665307155.8,286047029.2,N
1665307175.6,286047024.0,N
1665307195.5,286047026.1,N
1665307215.3,286047022.7,N
1665307235.1,286047020.5,N
1665307255.9,286047019.8,N
1665307275.7,286047015.6,N
1665307295.5,286047014.4,N
1665307315.4,286047011.4,N
1665307335.2,286047012.2,N
1665307355.1,286047012.3,N
1665307356.0,286047012.3,N
1665307375.8,286047012.7,N
1665307395.6,286047006.2,N
1665307415.5,286046997.1,N
1665307435.3,286046985.7,N
1665307455.1,286046978.6,N
1665307475.9,286046969.9,N
1665307495.7,286046965.3,N
1665307515.6,286046962.8,N
1665307535.4,286046960.8,N
1665307555.2,286046960.6,N
1665307575.1,286046965.3,N
1665307576.0,286046965.3,N
1665307595.8,286046967.3,N
1665307615.6,286046970.2,N
1665307635.5,286046974.3,N
1665307655.3,286046984.8,N
1665307675.2,286046986.9,N
1665307695.9,286046990.4,N
1665307715.7,286046989.0,N
1665307735.6,286046988.5,N
1665307755.4,286046993.2,N
1665307775.2,286046992.6,N
1665307795.1,286046993.0,N
1665307796.0,286046993.0,N
1665307815.8,286046990.7,N
1665307835.7,286046994.6,N
1665307855.5,286047001.4,N
1665307875.3,286047006.3,N
1665307895.2,286047007.1,N
1665307915.0,286046998.0,N
1665307915.9,286046998.0,N
1665307935.7,286046993.0,N
1665307955.6,286046994.8,N
1665307975.4,286046995.7,N
1665307995.3,286046999.8,N
1665308015.1,286047006.1,N
1665308016.0,286047006.1,N
1665308035.8,286047007.4,N
1665308055.7,286047003.8,N
1665308075.5,286047004.6,N
1665308095.3,286047006.6,N
1665308115.2,286047001.8,N
1665308135.0,286047004.2,N
1665308135.9,286047004.2,N
1665308155.8,286047001.2,N
1665308175.6,286046996.0,N
1665308195.4,286046992.2,N
1665308215.3,286046987.3,N
1665308235.1,286046982.2,N
1665308255.8,286046986.3,N
1665308275.7,286046987.6,N
1665308295.5,286046978.7,Y
1665308315.4,286046973.6,P
1665308335.2,286046967.0,N
1665308355.0,286046958.1,P
1665308355.9,286046958.1,N
1665308375.8,286046958.6,N
1665308395.6,286046962.0,N
1665308415.4,286046962.2,N
1665308435.3,286046963.9,N
1665308455.1,286046971.0,N
1665308475.9,286046977.8,N
1665308495.7,286046979.7,N
1665308515.5,286046978.0,N
1665308535.4,286046977.1,N
1665308555.2,286046973.7,N
1665308575.0,286046962.1,Y
1665308575.9,286046962.1,P
1665308595.8,286046982.1,P
1665308615.6,286046976.0,N
1665308635.5,286046975.4,Y
1665308655.3,286047007.0,P
1665308675.1,286047004.4,N
1665308695.9,286047001.0,N
1665308715.7,286046993.4,N
1665308735.6,286046993.4,N
1665308755.4,286046997.6,N
1665308775.2,286046992.6,N
1665308795.1,286046989.6,N
1665308796.0,286046989.6,N
1665308815.8,286046986.7,N
1665308835.6,286046979.0,N
1665308855.5,286046979.7,N
1665308875.3,286046979.1,N
1665308895.2,286046980.6,N
1665308915.9,286046982.2,N
1665308935.7,286046980.5,N
1665308955.6,286046984.5,N
1665308975.4,286046986.3,N
1665308995.2,286046984.2,N
1665309015.1,286046986.1,N
1665309016.0,286046986.1,N
1665309035.8,286046985.1,N
1665309055.7,286046979.5,N
1665309075.5,286046978.3,N
1665309095.3,286046978.2,N
1665309115.2,286046977.1,N
1665309135.9,286046973.2,Y
1665309155.7,286046985.8,P
1665309175.6,286046994.6,P
1665309195.4,286047009.1,N
1665309215.3,286047014.4,N
1665309235.1,286047020.2,N
1665309236.0,286047020.2,N
1665309255.8,286047023.7,N
1665309275.7,286047024.0,N
1665309295.5,286047018.7,N
1665309315.3,286047009.2,N
1665309335.2,286047000.2,N
1665309355.0,286046999.5,N
1665309355.9,286046999.5,N
1665309375.8,286046999.6,N
1665309395.6,286046995.6,N
1665309415.4,286046990.2,N
1665309435.3,286046991.8,N
1665309455.1,286046991.8,N
1665309475.8,286046991.1,N
1665309495.7,286046988.5,N
1665309515.5,286046985.1,N
1665309535.4,286046980.0,N
1665309555.2,286046974.1,N
1665309575.0,286046977.0,N
1665309575.9,286046977.0,N
1665309595.8,286046983.3,N
